Novato, CA

1:57 AM PST on November 24, 2017 (GMT -0800)
Gnoss

Weather History for KDVO - December, 2012

Change the Weather History Date:

Saturday, December 1, 2012

  Actual Average (KAPC) Record (KAPC)
Temperature  
Mean Temperature 60 °F -  
Max Temperature 62 °F 61 °F 69 °F (2011)
Min Temperature 57 °F 39 °F 20 °F (2007)
Degree Days  
Heating Degree Days 6    
Growing Degree Days 10 (Base 50)    
Moisture  
Dew Point 58 °F    
Average Humidity 98    
Maximum Humidity 100    
Minimum Humidity 88    
Precipitation  
Precipitation 0.03 in - - ()
Sea Level Pressure  
Sea Level Pressure 29.96 in    
Wind  
Wind Speed 8 mph (South)    
Max Wind Speed 16 mph    
Max Gust Speed 30 mph    
Visibility 6 miles    
Events Rain    
Averages and records for this station are not official NWS values.
T = Trace of Precipitation, MM = Missing Value Source: NWS Daily Summary

Daily Weather History Graph

Daily Weather History Graph

Search for Another Location

Airport or City:

Trip Planner

Search our weather history database for the weather conditions in past years. The results will help you decide how hot, cold, wet, or windy it might be!

Date:

Astronomy

Dec. 01, 2012 Rise Set
Actual Time 7:08 AM PST 4:50 PM PST
Civil Twilight 6:39 AM PST 5:19 PM PST
Nautical Twilight 6:06 AM PST 5:52 PM PST
Astronomical Twilight 5:34 AM PST 6:24 PM PST
Moon 7:44 PM PST (12/1) 9:25 AM PST (12/1)
Length of Visible Light 10h 40m
Length of Day
9h 42m
Waning Gibbous, 91% of the Moon is Illuminated
Dec 1
Waning Gibbous
Dec 6
Last Quarter
Dec 13
New
Dec 19
First Quarter
Dec 28
Full

Hourly Weather History & Observations

Time (PST) Temp. Dew Point Humidity Pressure Visibility Wind Dir Wind Speed Gust Speed Precip Events Conditions
12:15 AM 59.0 °F 59.0 °F 100% 30.00 in 10.0 mi SSE 8.1 mph - N/A   Mostly Cloudy
12:35 AM 59.0 °F 59.0 °F 100% 29.99 in 9.0 mi South 11.5 mph - N/A   Overcast
12:55 AM 59.0 °F 59.0 °F 100% 29.99 in 8.0 mi SSE 8.1 mph - N/A   Overcast
1:15 AM 59.0 °F 57.2 °F 94% 29.98 in 9.0 mi South 9.2 mph 17.3 mph N/A   Overcast
1:35 AM 59.0 °F 57.2 °F 94% 29.98 in 10.0 mi South 11.5 mph 23.0 mph N/A   Overcast
1:55 AM 57.2 °F 57.2 °F 100% 29.98 in 2.0 mi SSE 9.2 mph - N/A Rain Light Rain
2:15 AM 57.2 °F 57.2 °F 100% 29.98 in 1.8 mi SSE 5.8 mph - N/A Rain Light Rain
2:35 AM 57.2 °F 57.2 °F 100% 29.97 in 2.0 mi SSE 9.2 mph - N/A Rain Light Rain
2:55 AM 57.2 °F 57.2 °F 100% 29.97 in 1.8 mi SSE 6.9 mph - 0.01 in Rain Light Rain
3:15 AM 57.2 °F 57.2 °F 100% 29.97 in 2.5 mi SSE 6.9 mph - N/A Rain Light Rain
3:55 AM 57.2 °F 57.2 °F 100% 29.95 in 1.5 mi SSE 9.2 mph - N/A Rain Light Rain
4:15 AM 57.2 °F 57.2 °F 100% 29.95 in 1.8 mi SSE 9.2 mph - N/A Rain Light Rain
4:35 AM 57.2 °F 57.2 °F 100% 29.96 in 1.5 mi SSE 5.8 mph - N/A Rain Light Rain
4:55 AM 57.2 °F 57.2 °F 100% 29.95 in 2.0 mi SSE 5.8 mph - N/A Rain Light Rain
5:15 AM 57.2 °F 57.2 °F 100% 29.96 in 3.0 mi SSE 4.6 mph - N/A Rain Light Rain
5:35 AM 57.2 °F 57.2 °F 100% 29.97 in 3.0 mi ESE 3.5 mph - N/A Rain Light Rain
5:55 AM 57.2 °F 57.2 °F 100% 29.97 in 10.0 mi SE 5.8 mph - N/A   Overcast
6:15 AM 57.2 °F 57.2 °F 100% 29.98 in 9.0 mi South 8.1 mph - N/A   Overcast
6:35 AM 57.2 °F 57.2 °F 100% 29.98 in 5.0 mi South 9.2 mph - N/A   Mostly Cloudy
6:55 AM 57.2 °F 57.2 °F 100% 29.99 in 6.0 mi South 5.8 mph - N/A   Overcast
7:15 AM 57.2 °F 57.2 °F 100% 29.99 in 3.0 mi SSE 4.6 mph - N/A   Overcast
7:35 AM 57.2 °F 57.2 °F 100% 29.99 in 3.0 mi Calm Calm - N/A Rain Light Rain
7:55 AM 57.2 °F 57.2 °F 100% 30.00 in 1.2 mi ESE 5.8 mph - N/A Rain Light Rain
8:15 AM 57.2 °F 57.2 °F 100% 30.01 in 1.0 mi SE 4.6 mph - N/A Rain Light Rain
8:35 AM 57.2 °F 57.2 °F 100% 30.01 in 2.5 mi SE 3.5 mph - N/A Rain Light Rain
8:55 AM 57.2 °F 57.2 °F 100% 30.01 in 5.0 mi SSE 3.5 mph - N/A   Mist
9:15 AM 59.0 °F 59.0 °F 100% 30.02 in 8.0 mi SSE 3.5 mph - N/A   Unknown
9:35 AM 59.0 °F 59.0 °F 100% 30.03 in 10.0 mi South 3.5 mph - N/A   Unknown
9:55 AM 59.0 °F 59.0 °F 100% 30.03 in 10.0 mi South 3.5 mph - N/A   Unknown
10:15 AM 59.0 °F 59.0 °F 100% 30.03 in 10.0 mi SSE 3.5 mph - N/A   Unknown
10:35 AM 59.0 °F 59.0 °F 100% 30.03 in 10.0 mi ESE 3.5 mph - N/A   Unknown
10:55 AM 60.8 °F 60.8 °F 100% 30.03 in 10.0 mi East 5.8 mph - N/A   Mostly Cloudy
11:15 AM 59.0 °F 59.0 °F 100% 30.01 in 1.0 mi SE 3.5 mph - N/A Rain Light Rain
11:35 AM 59.0 °F 59.0 °F 100% 30.01 in 0.8 mi WSW 3.5 mph - N/A Rain Light Rain
11:55 AM 59.0 °F 59.0 °F 100% 30.01 in 1.5 mi WSW 6.9 mph - 0.01 in Rain Light Rain
12:15 PM 62.6 °F 62.6 °F 100% 30.00 in 10.0 mi WSW 8.1 mph - N/A   Mostly Cloudy
12:35 PM 62.6 °F 60.8 °F 94% 29.99 in 10.0 mi SW 9.2 mph - N/A   Mostly Cloudy
12:55 PM 62.6 °F 59.0 °F 88% 29.99 in 10.0 mi SW 12.7 mph - N/A   Mostly Cloudy
1:15 PM 62.6 °F 59.0 °F 88% 29.99 in 10.0 mi SW 10.4 mph 16.1 mph N/A   Mostly Cloudy
1:35 PM 62.6 °F 60.8 °F 94% 29.99 in 10.0 mi South 9.2 mph - N/A   Mostly Cloudy
1:55 PM 62.6 °F 60.8 °F 94% 29.98 in 7.0 mi South 4.6 mph - N/A   Mostly Cloudy
2:15 PM 62.6 °F 59.0 °F 88% 29.98 in 10.0 mi SSE 3.5 mph - N/A   Mostly Cloudy
2:35 PM 62.6 °F 59.0 °F 88% 29.98 in 10.0 mi SW 4.6 mph - N/A   Overcast
2:55 PM 62.6 °F 60.8 °F 94% 29.97 in 10.0 mi South 3.5 mph - N/A   Mostly Cloudy
3:15 PM 62.6 °F 59.0 °F 88% 29.97 in 10.0 mi South 3.5 mph - N/A   Mostly Cloudy
3:35 PM 62.6 °F 59.0 °F 88% 29.97 in 10.0 mi SSW 8.1 mph - N/A   Mostly Cloudy
3:55 PM 62.6 °F 59.0 °F 88% 29.97 in 10.0 mi SSW 6.9 mph - N/A   Mostly Cloudy
4:15 PM 62.6 °F 59.0 °F 88% 29.98 in 10.0 mi SSW 6.9 mph - N/A   Mostly Cloudy
4:35 PM 60.8 °F 57.2 °F 88% 29.97 in 10.0 mi SSW 6.9 mph - N/A   Mostly Cloudy
4:55 PM 60.8 °F 57.2 °F 88% 29.97 in 10.0 mi SSW 8.1 mph - N/A   Mostly Cloudy
5:15 PM 59.0 °F 57.2 °F 94% 29.97 in 10.0 mi South 6.9 mph - N/A   Mostly Cloudy
5:35 PM 59.0 °F 57.2 °F 94% 29.96 in 6.0 mi South 9.2 mph - N/A Rain Light Rain
5:55 PM 57.2 °F 57.2 °F 100% 29.95 in 9.0 mi SSE 9.2 mph - N/A Rain Light Rain
6:15 PM 57.2 °F 57.2 °F 100% 29.94 in 5.0 mi SSE 8.1 mph - N/A Rain Light Rain
6:35 PM 57.2 °F 57.2 °F 100% 29.93 in 4.0 mi SSE 6.9 mph - N/A Rain Light Rain
6:55 PM 57.2 °F 57.2 °F 100% 29.92 in 5.0 mi SSE 11.5 mph - N/A Rain Light Rain
7:15 PM 57.2 °F 57.2 °F 100% 29.91 in 2.0 mi SSE 10.4 mph - N/A Rain Light Rain
7:35 PM 57.2 °F 57.2 °F 100% 29.91 in 2.0 mi SSE 10.4 mph - 0.01 in Rain Light Rain
7:55 PM 57.2 °F 57.2 °F 100% 29.91 in 4.0 mi SSE 10.4 mph - 0.01 in Rain Light Rain
8:15 PM 57.2 °F 57.2 °F 100% 29.91 in 2.5 mi SSE 6.9 mph - N/A Rain Light Rain
8:35 PM 57.2 °F 57.2 °F 100% 29.89 in 2.5 mi SSE 6.9 mph - N/A Rain Light Rain
8:55 PM 57.2 °F 57.2 °F 100% 29.89 in 1.5 mi SSE 10.4 mph - N/A Rain Light Rain
9:15 PM 57.2 °F 57.2 °F 100% 29.88 in 2.0 mi SSE 11.5 mph 16.1 mph N/A Rain Light Rain
9:35 PM 57.2 °F 57.2 °F 100% 29.88 in 1.8 mi South 9.2 mph 16.1 mph N/A Rain Light Rain
9:55 PM 57.2 °F 57.2 °F 100% 29.88 in 1.8 mi SSE 5.8 mph - N/A Rain Light Rain
10:15 PM 59.0 °F 59.0 °F 100% 29.87 in 2.0 mi South 10.4 mph - N/A Rain Light Rain
10:35 PM 60.8 °F 60.8 °F 100% 29.87 in 4.0 mi South 9.2 mph - N/A Rain Light Rain
10:55 PM 60.8 °F 60.8 °F 100% 29.88 in 3.0 mi SSW 16.1 mph 19.6 mph N/A Rain Light Rain
11:15 PM 62.6 °F 62.6 °F 100% 29.87 in 3.0 mi South 11.5 mph 19.6 mph N/A Rain Light Rain
11:55 PM 62.6 °F 62.6 °F 100% 29.87 in - SSW 16.1 mph 29.9 mph N/A Rain Light Rain